Other Surface Observations
Issued by NWS Tucson, AZ

Home | Current Version | Previous Version | Text Only | Print | Product List | Glossary On
Versions: 1 2 3 4 5 6 7 8 9 10 11 12 13 14 15 16 17 18 19 20 21 22 23 24 25 26 27 28 29 30 31 32 33 34 35 36 37 38 39 40 41 42 43 44 45 46 47 48 49 50
000
SXUS55 KTWC 032116
OSOTWC

WEATHER ROUNDUP FOR SOUTHEAST ARIZONA
NATIONAL WEATHER SERVICE TUCSON AZ
215 PM MST THU SEP 03 2015

AZZ504>506-514-032215-
LOCATION       SKY/WX    TMP DP  RH WIND       PRES   REMARKS
TUCSON         PTSUNNY   85  61  44 N9        29.93F
DAVIS-MONTHAN  FAIR      85  64  49 N10       29.91F
CHILDRENS PARK N/A      N/A N/A  63 W5                PIMA CO DEQ
ALVERNON/22ND  N/A       89 N/A N/A NW5               PIMA CO DEQ
CHERRY/GLENN   N/A       87 N/A N/A N/A               PIMA CO DEQ
TANGERINE      N/A       80 N/A N/A SW5               PIMA CO DEQ
CONTL RANCH    N/A       79  69  71 SW6               PIMA CO DEQ
GRANT/1ST      N/A       69  58  69 NW1               PIMA CO DEQ
CRAYCROFT/22ND N/A       90  60  37 N/A               PIMA CO DEQ
GOLFLINKS/KOLB N/A      N/A N/A N/A N/A               PIMA CO DEQ
AJO/12TH       N/A       85  65  52 W8                PIMA CO DEQ
SAGUARO EAST   N/A       32   9  37 W5                PIMA CO DEQ
FAIRGROUNDS    N/A       90 N/A N/A N/A               PIMA CO DEQ
SAGUARO        N/A       85  59  41 W11G17            *SABINO CYN
SAN CARLOS     N/A       88  56  34 SE6G10            *SAN CARLOS
GREEN VALLEY   N/A       90  56  32 N1                PIMA CO DEQ
HORSE CAMP CYN N/A       79  55  43 S5                *ARAVAIPA CYN
RINCON MTNS    N/A       60  54  82 E3                *NR MANNING CAMP
$$

AZZ509>511-032215-
LOCATION       SKY/WX    TMP DP  RH WIND       PRES   REMARKS
SAFFORD        FAIR      85  58  39 VRB5      29.96F
STRAY HORSE    N/A       70  48  46 W5G14             *
TRAIL CABIN    N/A       79  50  37 NW4G10            *N OF GRANVILLE
BLACK HILLS    N/A       87  56  35 W5G10             *N OF FT THOMAS
DRY LAKE       N/A       70  53  55 S4G10             *NATANES MTNS
NOON CREEK     N/A       78  58  50 NE5G13            *PINALENO MTNS
COLUMBINE      N/A       59  48  66 S4                *PINALENO MTNS
GUTHRIE        N/A       78  56  46 SE3G13            *SW OF GUTHRIE
$$

AZZ502-503-513-032215-
LOCATION       SKY/WX    TMP DP  RH WIND       PRES   REMARKS
NOGALES        LGT RAIN  70  62  76 CALM      30.05R
SELLS          N/A       94  58  30 W6G14             *
SASABE         N/A       75  64  69 SE9G14            *ALTAR VLY
HOPKINS        N/A       68  57  67 W4G10             *SANTA RITA MTNS
CARR CYN       N/A       75  58  56 E3                *W OF HEREFORD
$$

AZZ507-508-512-032215-
LOCATION       SKY/WX    TMP DP  RH WIND       PRES   REMARKS
SIERRA VISTA   PTSUNNY   77  58  51 SE15      30.09F
DOUGLAS        FAIR      74  59  59 S18       30.08F
EMPIRE MTNS    N/A       64  60  88 N9G19             *LAS CIENEGAS NCA
MULESHOE RANCH N/A       85  58  40 W5G11             *PRESERVE
HEADQUARTERS   N/A       78  55  45 W4                *CHIRICAHUA MTNS
$$

.............................NOTES.............................
THIS IS AN AUTOMATED COLLECTIVE WITH MINIMAL QUALITY CONTROL.
PIMA CO DEQ SITES HAVE NONSTANDARD WIND SENSOR HEIGHTS.
PIMA CO DEQ SITES DO NOT REPORT WIND GUSTS.
* INDICATES WIND SENSORS LOCATED AT 20 FEET INSTEAD OF 33 FEET.
..............................KEY..............................
SKY/WX - SKY CONDITION/WEATHER
TMP    - TEMPERATURE IN FAHRENHEIT
DP     - DEWPOINT IN FAHRENHEIT
RH     - RELATIVE HUMIDITY IN PERCENT
WIND   - DIRECTION AND SPEED IN MILES PER HOUR (MPH)
VRB    - VARIABLE WIND DIRECTION
PRES   - MEAN SEA LEVEL PRESSURE IN INCHES OF MERCURY
         F - FALLING PRESSURE   R - RISING PRESSURE
         S - STEADY PRESSURE
VSB    - VISIBILITY IN MILES
HX     - HEAT INDEX IN FAHRENHEIT
WCI    - WIND CHILL INDEX IN FAHRENHEIT
N/A    - NOT AVAILABLE
AFB    - AIR FORCE BASE
         DAVIS-MONTHAN IS DAVIS-MONTHAN AIR FORCE BASE
CYN    - CANYON
MTNS   - MOUNTAINS
NCA    - NATIONAL CONSERVATION AREA
NR     - NEAR
VLY    - VALLEY
CONTL  - CONTINENTAL
PIMA CO DEQ - PIMA COUNTY DEPT OF ENVIRONMENTAL QUALITY



USA.gov is the U.S. government's official web portal to all federal, state and local government web resources and services.